Weather History for Shannon, Ireland

Change the Weather History Date:

Sunday, April 21, 2013

  Actual Average Record
Temperature  
Mean Temperature 48 °F -  
Max Temperature 53 °F 58 °F 73 °F (2011)
Min Temperature 44 °F 44 °F 35 °F (2005)
Degree Days  
Heating Degree Days 16    
Moisture  
Dew Point 43 °F    
Average Humidity 80    
Maximum Humidity 100    
Minimum Humidity 58    
Precipitation  
Precipitation 0.02 in 0.08 in - ()
Sea Level Pressure  
Sea Level Pressure 30.06 in    
Wind  
Wind Speed 12 mph ()    
Max Wind Speed 21 mph    
Max Gust Speed 26 mph    
Visibility 6.6 miles    
Events Rain    
Averages and records for this station are not official NWS values.
T = Trace of Precipitation, MM = Missing Value Source: Averaged Metar Reports

Daily Weather History Graph

Daily Weather History Graph

Search for Another Location

Airport:

Trip Planner

Search our weather history database for the weather conditions in past years. The results will help you decide how hot, cold, wet, or windy it might be!

Date:

Astronomy

Apr. 21, 2013 Rise Set
Actual Time 6:24 AM IST 8:45 PM IST
Civil Twilight 5:46 AM IST 9:23 PM IST
Nautical Twilight 4:59 AM IST 10:11 PM IST
Astronomical Twilight 4:02 AM IST 11:08 PM IST
Moon 3:43 PM IST (4/21) 4:15 AM IST (4/21)
Length of Visible Light 15h 36m
Length of Day
14h 21m
Waxing Gibbous, 78% of the Moon is Illuminated
Apr 21
Waxing Gibbous
Apr 25
Full
May 2
Last Quarter
May 10
New
May 18
First Quarter

Hourly Weather History & Observations

Time (IST) Temp. Windchill Dew Point Humidity Pressure Visibility Wind Dir Wind Speed Gust Speed Precip Events Conditions
12:00 AM 48.2 °F - 42.8 °F 82% 30.18 in 6.2 mi SSE 15.0 mph - N/A   Mostly Cloudy
12:30 AM 48.2 °F - 41.0 °F 76% 30.15 in 6.2 mi SSE 12.7 mph - N/A   Mostly Cloudy
1:00 AM 48 °F - 42 °F 74% 30.16 in 16 mi SSE 13.4 mph - -   Mostly Cloudy
1:00 AM 48.2 °F - 42.8 °F 82% 30.15 in 6.2 mi SSE 13.8 mph - N/A   Mostly Cloudy
1:30 AM 48.2 °F - 42.8 °F 82% 30.12 in 6.2 mi South 15.0 mph - N/A   Mostly Cloudy
2:00 AM 48.2 °F - 42.8 °F 82% 30.12 in 6.2 mi SSE 13.8 mph - N/A   Mostly Cloudy
2:30 AM 48.2 °F - 42.8 °F 82% 30.12 in 6.2 mi South 9.2 mph - N/A   Mostly Cloudy
3:00 AM 46.4 °F 41.9 °F 44.6 °F 93% 30.09 in 6.2 mi South 9.2 mph - N/A Rain Light Rain
3:30 AM 48.2 °F - 44.6 °F 87% 30.09 in 5.6 mi SSW 10.4 mph - N/A Rain Light Rain
4:00 AM 46.4 °F 42.4 °F 46.4 °F 100% 30.09 in 3.7 mi SW 8.1 mph - N/A Rain Light Rain
4:30 AM 46.4 °F 40.1 °F 44.6 °F 93% 30.09 in 5.0 mi SSW 15.0 mph - N/A Rain Light Rain
5:00 AM 44.6 °F 38.8 °F 42.8 °F 93% 30.09 in 6.2 mi WSW 11.5 mph - N/A Rain Light Rain
5:30 AM 44.6 °F 39.2 °F 42.8 °F 93% 30.06 in 6.2 mi SW 10.4 mph - N/A Rain Light Rain
6:00 AM 44.6 °F 39.2 °F 42.8 °F 93% 30.06 in 6.2 mi SSW 10.4 mph - N/A Rain Light Rain
6:30 AM 44.6 °F 39.7 °F 42.8 °F 93% 30.06 in 6.2 mi South 9.2 mph - N/A Rain Light Rain
7:00 AM 44 °F - 42 °F 91% 30.07 in 9 mi South 6.7 mph - - Rain Light Rain
7:00 AM 44.6 °F 40.7 °F 42.8 °F 93% 30.06 in 6.2 mi South 6.9 mph - N/A Rain Light Rain
7:30 AM 44.6 °F 40.2 °F 42.8 °F 93% 30.04 in 6.2 mi SSE 8.1 mph - N/A   Scattered Clouds
8:00 AM 44.6 °F 40.2 °F 42.8 °F 93% 30.04 in 6.2 mi SSE 8.1 mph - N/A   Partly Cloudy
8:30 AM 46.4 °F 42.4 °F 42.8 °F 87% 30.04 in 6.2 mi SSW 8.1 mph - N/A   Partly Cloudy
9:00 AM 48.2 °F - 44.6 °F 87% 30.04 in 6.2 mi SSW 9.2 mph - N/A   Scattered Clouds
9:30 AM 48.2 °F - 44.6 °F 87% 30.04 in 6.2 mi SW 13.8 mph - N/A   Scattered Clouds
10:00 AM 50.0 °F - 46.4 °F 87% 30.04 in 6.2 mi WSW 12.7 mph - N/A   Scattered Clouds
10:30 AM 51.8 °F - 44.6 °F 76% 30.04 in 6.2 mi WSW 15.0 mph - N/A   Mostly Cloudy
11:00 AM 50.0 °F - 42.8 °F 76% 30.04 in 6.2 mi WSW 18.4 mph - N/A Rain Light Rain Showers
11:30 AM 51.8 °F - 44.6 °F 76% 30.04 in 6.2 mi WSW 20.7 mph - N/A Rain Light Rain Showers
12:00 PM 51.8 °F - 44.6 °F 76% 30.04 in 6.2 mi SW 19.6 mph - N/A Rain Light Rain Showers
12:30 PM 48.2 °F - 42.8 °F 82% 30.04 in 6.2 mi West 13.8 mph 26.5 mph N/A   Mostly Cloudy
1:00 PM 49 °F - 42 °F 70% 30.05 in 16 mi SW 15.7 mph - - Rain Light Rain Showers
1:00 PM 50.0 °F - 42.8 °F 76% 30.04 in 6.2 mi SW 15.0 mph - N/A   Scattered Clouds
1:30 PM 53.6 °F - 42.8 °F 67% 30.04 in 6.2 mi WSW 19.6 mph - N/A   Mostly Cloudy
2:00 PM 51.8 °F - 41.0 °F 67% 30.04 in 6.2 mi West 18.4 mph - N/A   Scattered Clouds
2:30 PM 51.8 °F - 41.0 °F 67% 30.04 in 6.2 mi West 17.3 mph - N/A   Scattered Clouds
3:00 PM 50.0 °F - 39.2 °F 66% 30.04 in 6.2 mi West 19.6 mph - N/A   Scattered Clouds
3:30 PM 51.8 °F - 37.4 °F 58% 30.04 in 6.2 mi West 19.6 mph - N/A   Mostly Cloudy
4:00 PM 51.8 °F - 41.0 °F 67% 30.04 in 6.2 mi West 15.0 mph - N/A   Mostly Cloudy
4:30 PM 51.8 °F - 39.2 °F 62% 30.04 in 6.2 mi West 17.3 mph - N/A   Mostly Cloudy
5:00 PM 51.8 °F - 41.0 °F 67% 30.01 in 6.2 mi West 15.0 mph - N/A   Mostly Cloudy
5:30 PM 51.8 °F - 41.0 °F 67% 30.01 in 6.2 mi WSW 18.4 mph - N/A   Mostly Cloudy
6:00 PM 50.0 °F - 42.8 °F 76% 30.01 in 6.2 mi West 15.0 mph - N/A   Mostly Cloudy
6:30 PM 51.8 °F - 42.8 °F 71% 30.01 in 6.2 mi WSW 16.1 mph - N/A   Mostly Cloudy
7:00 PM 50 °F - 41 °F 62% 30.03 in 22 mi WSW 17.9 mph - -   Partly Cloudy
7:00 PM 50.0 °F - 41.0 °F 71% 30.01 in 6.2 mi WSW 17.3 mph - N/A   Mostly Cloudy
7:30 PM 50.0 °F - 41.0 °F 71% 30.01 in 6.2 mi WSW 16.1 mph - N/A   Mostly Cloudy
8:00 PM 48.2 °F - 42.8 °F 82% 30.01 in 6.2 mi WSW 16.1 mph - N/A   Mostly Cloudy
8:30 PM 48.2 °F - 42.8 °F 82% 30.04 in 6.2 mi WSW 12.7 mph - N/A   Mostly Cloudy
9:00 PM 48.2 °F - 42.8 °F 82% 30.04 in 6.2 mi WSW 11.5 mph - N/A   Mostly Cloudy
9:30 PM 48.2 °F - 42.8 °F 82% 30.04 in 6.2 mi WSW 10.4 mph - N/A   Mostly Cloudy
10:00 PM 48.2 °F - 42.8 °F 82% 30.04 in 6.2 mi WSW 12.7 mph - N/A   Mostly Cloudy
10:30 PM 48.2 °F - 42.8 °F 82% 30.04 in 6.2 mi WSW 10.4 mph - N/A   Mostly Cloudy
11:00 PM 46.4 °F 40.7 °F 42.8 °F 87% 30.04 in 6.2 mi West 12.7 mph - N/A Rain Light Rain Showers
11:30 PM 46.4 °F 43.5 °F 42.8 °F 87% 30.01 in 6.2 mi WSW 5.8 mph - N/A   Mostly Cloudy